Retour au catalogue

STARLINK-37268

ActifCommunicationsSSO
NORAD 68747·PAYLOAD·🇺🇸 United States

Lancé Apr 15, 2026 depuis Vandenberg Space Force Base

Loading…

Prochains Passages (prochaines 24 heures)

TLE

FraisSource: CelesTrak SupGP

Époque: Sep 15, 2026, 04:15 UTC

1 68747C 26082V   26258.17756944 -.00025128  00000+0 -78056-3 0  2582
2 68747  97.2851 120.4646 0001989  93.2449 274.4827 15.33429711    18

Suivez STARLINK-37268 en temps réel avec AllMySat

Download on the App Store